Location: Lake Arresoe
(56.0000°N, 12.5000°E)
Time: 15:46:01
(UTC+02:00)

Resurs 1-4 Rocket - Pass Details

Date: 30 July 2021
Orbit: 799 x 814 km, 98.6° (Epoch: 27 September)

Event Time Altitude Azimuth Distance (km) Brightness Sun altitude
Rises 03:23:48 0° 15° (NNE) 3,351 7.0 -10.8°
Reaches altitude 10° 03:26:09 10° 14° (NNE) 2,413 5.9 -10.7°
Maximum altitude 03:31:28 72° 291° (WNW) 858 2.2 -10.3°
Enters shadow 03:36:15 13° 209° (SSW) 2,201 3.7 -9.9°
